Location: Borovka
(49.7741°N, 14.5280°E)
Time: 02:06:59
(UTC+00:00)

BlueWalker 3 - Pass Details

Date: 24 January 2026
Orbit: 451 x 461 km, 53.2° (Epoch: 13 February)

Event Time Altitude Azimuth Distance (km) Brightness Sun altitude
Rises 17:12:09 0° 230° (SW) 2,449 6.6 -14.2°
Reaches altitude 10° 17:14:19 10° 226° (SW) 1,579 5.4 -14.5°
Maximum altitude 17:17:46 52° 149° (SSE) 565 2.0 -15.0°
Enters shadow 17:19:05 32° 90° (E) 797 2.4 -15.2°
